| time (UTC) | temp C | wind direction | speed KPH | gust KPH | rain 1hr cm | rain 24hr cm | rain mn cm | humidity % | barometer mb |
| 20260507000049 | 15 | 160 | 1.6 | 4.8 | 0.00 | 0.58 | 0.58 | 93 | 1010.0 |
| 20260506234549 | 15 | 197 | 1.6 | 8.0 | 0.00 | 0.58 | 0.58 | 93 | 1010.0 |
| 20260506233101 | 15 | 188 | 1.6 | 4.8 | 0.00 | 0.58 | 0.58 | 93 | 1009.8 |
| 20260506231547 | 15 | 179 | 0.0 | 4.8 | 0.00 | 0.58 | 0.58 | 92 | 1009.8 |
| 20260506230048 | 15 | 315 | 1.6 | 4.8 | 0.00 | 0.58 | 0.58 | 93 | 1009.8 |
| 20260506224545 | 15 | 182 | 1.6 | 9.7 | 0.00 | 0.58 | 0.58 | 93 | 1009.8 |
| 20260506223046 | 15 | 197 | 0.0 | 6.4 | 0.00 | 0.58 | 0.58 | 93 | 1009.6 |
| 20260506221553 | 15 | 193 | 0.0 | 4.8 | 0.00 | 0.58 | 0.58 | 93 | 1009.6 |
| 20260506220044 | 15 | 165 | 0.0 | 9.7 | 0.00 | 0.58 | 0.58 | 93 | 1009.4 |
| 20260506214543 | 15 | 134 | 0.0 | 6.4 | 0.00 | 0.58 | 0.58 | 93 | 1009.1 |
| 20260506213042 | 15 | 209 | 1.6 | 9.7 | 0.00 | 0.58 | 0.58 | 92 | 1009.2 |
| 20260506211542 | 15 | 285 | 3.2 | 14.5 | 0.00 | 0.58 | 0.58 | 92 | 1009.1 |
| 20260506210044 | 15 | 254 | 6.4 | 17.7 | 0.00 | 0.58 | 0.58 | 92 | 1009.0 |
| 20260506204540 | 15 | 290 | 3.2 | 16.1 | 0.00 | 0.58 | 0.58 | 92 | 1008.8 |
| 20260506203039 | 15 | 265 | 3.2 | 19.3 | 0.03 | 0.58 | 0.58 | 93 | 1008.7 |
| 20260506201540 | 15 | 163 | 1.6 | 11.3 | 0.03 | 0.58 | 0.58 | 93 | 1008.8 |
| 20260506200044 | 15 | 162 | 1.6 | 16.1 | 0.08 | 0.58 | 0.58 | 93 | 1008.8 |
| 20260506194544 | 15 | 198 | 4.8 | 14.5 | 0.10 | 0.58 | 0.58 | 93 | 1008.9 |
| 20260506193033 | 15 | 207 | 1.6 | 11.3 | 0.13 | 0.56 | 0.56 | 93 | 1009.2 |
| 20260506191532 | 15 | 150 | 4.8 | 11.3 | 0.15 | 0.56 | 0.56 | 94 | 1009.5 |
| 20260506190032 | 15 | 209 | 4.8 | 12.9 | 0.15 | 0.51 | 0.51 | 93 | 1009.5 |
| 20260506184529 | 15 | 183 | 4.8 | 16.1 | 0.15 | 0.48 | 0.48 | 93 | 1009.6 |
| 20260506183034 | 15 | 174 | 3.2 | 12.9 | 0.10 | 0.43 | 0.43 | 93 | 1009.6 |
| 20260506181528 | 15 | 212 | 9.7 | 14.5 | 0.05 | 0.38 | 0.38 | 92 | 1009.6 |
| 20260506180027 | 15 | 212 | 4.8 | 17.7 | 0.03 | 0.36 | 0.36 | 92 | 1009.8 |
| 20260506174527 | 15 | 184 | 11.3 | 22.5 | 0.03 | 0.33 | 0.33 | 91 | 1009.9 |
| 20260506173025 | 15 | 152 | 6.4 | 20.9 | 0.05 | 0.33 | 0.33 | 92 | 1009.8 |
| 20260506171524 | 15 | 213 | 8.0 | 19.3 | 0.10 | 0.33 | 0.33 | 92 | 1009.8 |
| 20260506170022 | 15 | 173 | 8.0 | 27.4 | 0.18 | 0.33 | 0.33 | 92 | 1009.9 |
| 20260506164519 | 15 | 174 | 8.0 | 19.3 | 0.20 | 0.30 | 0.30 | 92 | 1009.8 |
| 20260506163017 | 15 | 160 | 8.0 | 19.3 | 0.18 | 0.28 | 0.28 | 91 | 1010.1 |
| 20260506161513 | 15 | 200 | 4.8 | 16.1 | 0.20 | 0.23 | 0.23 | 91 | 1010.7 |
| 20260506160016 | 15 | 183 | 4.8 | 22.5 | 0.15 | 0.15 | 0.15 | 89 | 1010.9 |
| 20260506154508 | 16 | 179 | 8.0 | 14.5 | 0.10 | 0.10 | 0.10 | 87 | 1011.1 |
| 20260506153006 | 16 | 204 | 6.4 | 12.9 | 0.08 | 0.08 | 0.08 | 87 | 1011.0 |
| 20260506151507 | 16 | 172 | 6.4 | 16.1 | 0.03 | 0.03 | 0.03 | 83 | 1011.0 |
| 20260506150004 | 17 | 192 | 9.7 | 12.9 | 0.00 | 0.00 | 0.00 | 79 | 1011.2 |
| 20260506144502 | 17 | 205 | 8.0 | 20.9 | 0.00 | 0.00 | 0.00 | 77 | 1011.2 |
| 20260506143002 | 17 | 187 | 4.8 | 16.1 | 0.00 | 0.00 | 0.00 | 77 | 1011.3 |
| 20260506141501 | 17 | 186 | 8.0 | 17.7 | 0.00 | 0.00 | 0.00 | 77 | 1011.1 |
| 20260506140100 | 17 | 172 | 6.4 | 19.3 | 0.00 | 0.00 | 0.00 | 77 | 1011.1 |
| 20260506134558 | 17 | 155 | 8.0 | 20.9 | 0.00 | 0.00 | 0.00 | 77 | 1011.1 |
| 20260506133106 | 17 | 186 | 6.4 | 20.9 | 0.00 | 0.00 | 0.00 | 77 | 1011.4 |
| 20260506131557 | 17 | 181 | 8.0 | 17.7 | 0.00 | 0.00 | 0.00 | 77 | 1011.5 |
| 20260506130056 | 17 | 209 | 6.4 | 20.9 | 0.00 | 0.00 | 0.00 | 77 | 1011.4 |
| 20260506124555 | 17 | 241 | 6.4 | 14.5 | 0.00 | 0.00 | 0.00 | 77 | 1011.3 |
| 20260506123055 | 16 | 155 | 8.0 | 16.1 | 0.00 | 0.00 | 0.00 | 78 | 1011.1 |
| 20260506121607 | 16 | 198 | 6.4 | 19.3 | 0.00 | 0.00 | 0.00 | 79 | 1011.3 |
| 20260506120118 | 16 | 180 | 8.0 | 20.9 | 0.00 | 0.00 | 0.00 | 80 | 1011.4 |
| 20260506114552 | 16 | 217 | 9.7 | 25.7 | 0.00 | 0.00 | 0.00 | 80 | 1011.5 |
| 20260506113054 | 16 | 168 | 6.4 | 16.1 | 0.00 | 0.00 | 0.00 | 80 | 1011.4 |
| 20260506111552 | 16 | 211 | 8.0 | 16.1 | 0.00 | 0.00 | 0.00 | 81 | 1011.3 |
| 20260506110054 | 16 | 179 | 11.3 | 22.5 | 0.00 | 0.00 | 0.00 | 81 | 1011.2 |
| 20260506104549 | 16 | 177 | 8.0 | 17.7 | 0.00 | 0.00 | 0.00 | 82 | 1011.1 |
| 20260506103052 | 16 | 167 | 9.7 | 20.9 | 0.00 | 0.00 | 0.00 | 82 | 1011.0 |
| 20260506101549 | 16 | 180 | 6.4 | 16.1 | 0.00 | 0.00 | 0.00 | 82 | 1011.2 |
| 20260506100045 | 16 | 166 | 9.7 | 19.3 | 0.00 | 0.00 | 0.00 | 82 | 1011.0 |
| 20260506094547 | 16 | 214 | 6.4 | 24.1 | 0.00 | 0.00 | 0.00 | 82 | 1011.0 |
| 20260506093048 | 16 | 160 | 9.7 | 19.3 | 0.00 | 0.00 | 0.00 | 82 | 1010.9 |
| 20260506091541 | 16 | 203 | 6.4 | 17.7 | 0.00 | 0.00 | 0.00 | 82 | 1011.1 |
| 20260506090037 | 16 | 199 | 8.0 | 17.7 | 0.00 | 0.00 | 0.00 | 81 | 1011.1 |
| 20260506084535 | 16 | 174 | 8.0 | 16.1 | 0.00 | 0.00 | 0.00 | 80 | 1011.2 |
| 20260506083036 | 16 | 159 | 8.0 | 19.3 | 0.00 | 0.00 | 0.00 | 79 | 1011.2 |
| 20260506081529 | 16 | 153 | 9.7 | 16.1 | 0.00 | 0.00 | 0.00 | 78 | 1011.4 |
| 20260506080128 | 16 | 213 | 9.7 | 19.3 | 0.00 | 0.00 | 0.00 | 76 | 1011.4 |
| 20260506073022 | 17 | 184 | 6.4 | 14.5 | 0.00 | 0.00 | 0.00 | 73 | 1011.5 |
| 20260506071522 | 17 | 193 | 6.4 | 22.5 | 0.00 | 0.00 | 0.00 | 72 | 1011.5 |
| 20260506061516 | 17 | 185 | 9.7 | 25.7 | 0.00 | 0.00 | 0.00 | 69 | 1012.0 |
| 20260506044604 | 18 | 216 | 6.4 | 17.7 | 0.00 | 0.00 | 0.00 | 66 | 1012.6 |
| 20260506043057 | 18 | 158 | 8.0 | 16.1 | 0.00 | 0.00 | 0.00 | 65 | 1012.4 |
| 20260506041557 | 18 | 150 | 9.7 | 20.9 | 0.00 | 0.00 | 0.00 | 64 | 1012.5 |
| 20260506040053 | 18 | 206 | 8.0 | 27.4 | 0.00 | 0.00 | 0.00 | 64 | 1012.5 |
| 20260506034552 | 18 | 185 | 9.7 | 22.5 | 0.00 | 0.00 | 0.00 | 64 | 1012.4 |
| 20260506033051 | 18 | 148 | 14.5 | 24.1 | 0.00 | 0.00 | 0.00 | 63 | 1012.4 |
| 20260506031559 | 19 | 168 | 9.7 | 19.3 | 0.00 | 0.00 | 0.00 | 62 | 1012.4 |
| 20260506030108 | 19 | 202 | 9.7 | 22.5 | 0.00 | 0.00 | 0.00 | 60 | 1012.4 |
| 20260506024548 | 20 | 146 | 11.3 | 22.5 | 0.00 | 0.00 | 0.00 | 57 | 1012.4 |
| 20260506023048 | 20 | 172 | 11.3 | 19.3 | 0.00 | 0.00 | 0.00 | 53 | 1012.3 |
| 20260506021549 | 20 | 159 | 11.3 | 27.4 | 0.00 | 0.00 | 0.00 | 52 | 1012.2 |
| 20260506020047 | 21 | 200 | 11.3 | 29.0 | 0.00 | 0.00 | 0.00 | 50 | 1012.2 |
| 20260506014548 | 21 | 169 | 11.3 | 20.9 | 0.00 | 0.00 | 0.00 | 50 | 1012.1 |
| 20260506013047 | 21 | 189 | 9.7 | 19.3 | 0.00 | 0.00 | 0.00 | 49 | 1011.9 |
| 20260506011553 | 21 | 170 | 8.0 | 22.5 | 0.00 | 0.00 | 0.00 | 48 | 1011.9 |
| 20260506010045 | 22 | 151 | 9.7 | 17.7 | 0.00 | 0.00 | 0.00 | 47 | 1011.6 |
| 20260506004620 | 22 | 210 | 8.0 | 20.9 | 0.00 | 0.00 | 0.00 | 44 | 1011.6 |
| 20260506003043 | 22 | 176 | 6.4 | 19.3 | 0.00 | 0.00 | 0.00 | 43 | 1011.5 |
| 20260506001543 | 22 | 167 | 6.4 | 14.5 | 0.00 | 0.00 | 0.00 | 41 | 1011.3 |